TKJ4AU LTCA-LTAC

Flight info

Callsign TKJ4AU
Flight time 0h 55m
Altitude 38000
Route BULUT UL614 GOBIT
Aircraft B738/M-SDE2E3FGHIRWXY/LB1

Departure

Time 2026-04-28 17:33
Airport Elazığ Airport (LTCA)

Arrival

Time 2026-04-28 18:29
Airport Esenboğa International Airport (LTAC)
Time Latitude Longitude Altitude Speed Heading
2026-04-28 17:25 38.59949 39.26801 2927 ft 0 kts 242°
2026-04-28 17:29 38.59947 39.26800 2928 ft 1 kts 225°
2026-04-28 17:29 38.59928 39.26808 2930 ft 7 kts 162°
2026-04-28 17:29 38.59892 39.26797 2931 ft 5 kts 249°
2026-04-28 17:30 38.59861 39.26639 2932 ft 13 kts 256°
2026-04-28 17:30 38.59823 39.26435 2935 ft 8 kts 256°
2026-04-28 17:30 38.59815 39.26395 2935 ft 4 kts 256°
2026-04-28 17:31 38.59794 39.26378 2935 ft 4 kts 175°
2026-04-28 17:31 38.59695 39.26407 2934 ft 13 kts 166°
2026-04-28 17:32 38.59524 39.26463 2936 ft 12 kts 165°
2026-04-28 17:32 38.59452 39.26487 2931 ft 8 kts 165°
2026-04-28 17:32 38.59448 39.26507 2937 ft 5 kts 80°
2026-04-28 17:32 38.59476 39.26661 2936 ft 45 kts 76°
2026-04-28 17:33 38.59610 39.27341 2926 ft 111 kts 76°
2026-04-28 17:33 38.59843 39.28545 2922 ft 164 kts 76°
2026-04-28 17:33 38.60113 39.30023 3447 ft 176 kts 78°
2026-04-28 17:33 38.60338 39.31052 3798 ft 189 kts 67°
2026-04-28 17:34 38.61042 39.33086 4848 ft 189 kts 66°
2026-04-28 17:34 38.61584 39.34740 5141 ft 215 kts 66°
2026-04-28 17:34 38.62177 39.36592 5334 ft 236 kts 66°
2026-04-28 17:34 38.62820 39.38618 5544 ft 253 kts 67°
2026-04-28 17:35 38.63625 39.40684 5843 ft 270 kts 48°
2026-04-28 17:35 38.65218 39.41971 6276 ft 279 kts 12°
2026-04-28 17:35 38.67133 39.42020 7091 ft 276 kts 346°
2026-04-28 17:35 38.68855 39.40991 7906 ft 278 kts 321°
2026-04-28 17:36 38.70042 39.39033 8582 ft 285 kts 293°
2026-04-28 17:36 38.70501 39.36553 9360 ft 290 kts 276°
2026-04-28 17:36 38.70579 39.33942 10050 ft 297 kts 271°
2026-04-28 17:36 38.70599 39.31232 10404 ft 316 kts 271°
2026-04-28 17:37 38.70650 39.28317 10581 ft 339 kts 273°
2026-04-28 17:37 38.70736 39.25221 10897 ft 355 kts 273°
2026-04-28 17:37 38.70840 39.22032 11495 ft 361 kts 274°
2026-04-28 17:37 38.71123 39.18850 12292 ft 361 kts 280°
2026-04-28 17:38 38.71611 39.15699 13087 ft 361 kts 282°
2026-04-28 17:38 38.72146 39.12548 13821 ft 364 kts 283°
2026-04-28 17:38 38.72678 39.09359 14369 ft 370 kts 282°
2026-04-28 17:38 38.73198 39.06121 15012 ft 372 kts 281°
2026-04-28 17:39 38.73703 39.02853 15602 ft 377 kts 281°
2026-04-28 17:39 38.74204 38.99547 16225 ft 379 kts 281°
2026-04-28 17:39 38.75204 38.92863 17482 ft 385 kts 281°
2026-04-28 17:40 38.75702 38.89524 18076 ft 388 kts 281°
2026-04-28 17:40 38.76222 38.86065 18572 ft 393 kts 281°
2026-04-28 17:40 38.76736 38.82665 19113 ft 395 kts 281°
2026-04-28 17:40 38.77258 38.79205 19625 ft 397 kts 281°
2026-04-28 17:41 38.77785 38.75715 20138 ft 400 kts 281°
2026-04-28 17:41 38.78313 38.72204 20673 ft 402 kts 281°
2026-04-28 17:41 38.78850 38.68623 21209 ft 404 kts 281°
2026-04-28 17:41 38.79380 38.65079 21713 ft 407 kts 281°
2026-04-28 17:42 38.79913 38.61504 22205 ft 409 kts 280°
2026-04-28 17:42 38.80267 38.59125 22517 ft 411 kts 280°
2026-04-28 17:42 38.80979 38.54336 23149 ft 414 kts 280°
2026-04-28 17:42 38.81518 38.50698 23598 ft 417 kts 280°
2026-04-28 17:43 38.82059 38.47036 23998 ft 419 kts 280°
2026-04-28 17:43 38.82601 38.43364 24417 ft 420 kts 280°
2026-04-28 17:43 38.83143 38.39681 24831 ft 421 kts 280°
2026-04-28 17:43 38.83685 38.35986 25196 ft 423 kts 279°
2026-04-28 17:44 38.84230 38.32266 25551 ft 426 kts 279°
2026-04-28 17:44 38.84776 38.28525 25894 ft 428 kts 279°
2026-04-28 17:44 38.85324 38.24766 26257 ft 430 kts 279°
2026-04-28 17:44 38.85874 38.20988 26602 ft 431 kts 279°
2026-04-28 17:45 38.86425 38.17192 26938 ft 434 kts 279°
2026-04-28 17:45 38.86975 38.13387 27290 ft 435 kts 279°
2026-04-28 17:45 38.87528 38.09560 27645 ft 436 kts 279°
2026-04-28 17:45 38.88081 38.05723 27955 ft 439 kts 279°
2026-04-28 17:46 38.88636 38.01861 28250 ft 441 kts 279°
2026-04-28 17:46 38.89192 37.97983 28545 ft 443 kts 279°
2026-04-28 17:46 38.89748 37.94093 28846 ft 444 kts 279°
2026-04-28 17:46 38.90305 37.90186 29142 ft 446 kts 279°
2026-04-28 17:47 38.90865 37.86254 29461 ft 447 kts 279°
2026-04-28 17:47 38.91422 37.82335 29924 ft 445 kts 279°
2026-04-28 17:47 38.91973 37.78445 30366 ft 441 kts 279°
2026-04-28 17:47 38.92335 37.75883 30612 ft 440 kts 279°
2026-04-28 17:48 38.93064 37.70714 31033 ft 439 kts 279°
2026-04-28 17:48 38.93606 37.66857 31342 ft 439 kts 279°
2026-04-28 17:48 38.94145 37.63009 31701 ft 437 kts 279°
2026-04-28 17:48 38.94681 37.59179 32076 ft 435 kts 279°
2026-04-28 17:49 38.95213 37.55364 32441 ft 433 kts 279°
2026-04-28 17:49 38.95742 37.51562 32751 ft 432 kts 278°
2026-04-28 17:49 38.96269 37.47764 33060 ft 431 kts 278°
2026-04-28 17:49 38.96794 37.43970 33384 ft 430 kts 278°
2026-04-28 17:50 38.97317 37.40184 33696 ft 429 kts 278°
2026-04-28 17:50 38.97836 37.36417 33990 ft 428 kts 278°
2026-04-28 17:50 38.98353 37.32653 34227 ft 428 kts 278°
2026-04-28 17:50 38.98869 37.28887 34457 ft 427 kts 278°
2026-04-28 17:51 38.99384 37.25125 34685 ft 427 kts 278°
2026-04-28 17:51 38.99890 37.21414 34893 ft 427 kts 278°
2026-04-28 17:51 39.00407 37.17612 35135 ft 426 kts 278°
2026-04-28 17:51 39.00908 37.13919 35385 ft 425 kts 278°
2026-04-28 17:52 39.01415 37.10176 35590 ft 425 kts 278°
2026-04-28 17:52 39.01921 37.06430 35764 ft 425 kts 278°
2026-04-28 17:52 39.02928 36.98941 36188 ft 424 kts 278°
2026-04-28 17:53 39.03430 36.95198 36384 ft 424 kts 278°
2026-04-28 17:53 39.03928 36.91470 36565 ft 424 kts 278°
2026-04-28 17:53 39.04426 36.87735 36758 ft 423 kts 278°
2026-04-28 17:53 39.04922 36.84007 36959 ft 423 kts 278°
2026-04-28 17:54 39.05917 36.76497 36972 ft 427 kts 278°
2026-04-28 17:54 39.06909 36.68974 36965 ft 424 kts 278°
2026-04-28 17:55 39.07885 36.61540 36965 ft 420 kts 278°
2026-04-28 17:55 39.08849 36.54150 36975 ft 417 kts 278°
2026-04-28 17:56 39.09803 36.46802 36970 ft 416 kts 278°
2026-04-28 17:56 39.10750 36.39467 36973 ft 415 kts 278°
2026-04-28 17:57 39.11692 36.32130 36974 ft 416 kts 277°
2026-04-28 17:57 39.12636 36.24750 36977 ft 418 kts 277°
2026-04-28 17:58 39.13572 36.17385 36970 ft 420 kts 277°
2026-04-28 17:58 39.14515 36.09936 36973 ft 422 kts 277°
2026-04-28 17:59 39.15544 36.02474 36965 ft 425 kts 283°
2026-04-28 17:59 39.17583 35.95296 36968 ft 428 kts 289°
2026-04-28 18:00 39.19754 35.88152 36977 ft 428 kts 289°
2026-04-28 18:00 39.21898 35.80986 36977 ft 428 kts 289°
2026-04-28 18:01 39.24016 35.73821 36975 ft 427 kts 288°
2026-04-28 18:01 39.26124 35.66654 36978 ft 427 kts 288°
2026-04-28 18:02 39.28224 35.59494 36974 ft 426 kts 288°
2026-04-28 18:02 39.30316 35.52345 36974 ft 425 kts 288°
2026-04-28 18:03 39.32398 35.45211 36972 ft 424 kts 288°
2026-04-28 18:03 39.33438 35.41639 36738 ft 428 kts 288°
2026-04-28 18:03 39.34487 35.38032 36298 ft 428 kts 288°
2026-04-28 18:04 39.35532 35.34433 35772 ft 426 kts 288°
2026-04-28 18:04 39.36565 35.30876 35388 ft 421 kts 288°
2026-04-28 18:04 39.37586 35.27351 34965 ft 417 kts 288°
2026-04-28 18:04 39.38597 35.23859 34556 ft 413 kts 288°
2026-04-28 18:05 39.39598 35.20394 34155 ft 409 kts 288°
2026-04-28 18:05 39.40257 35.18113 33876 ft 407 kts 288°
2026-04-28 18:05 39.41589 35.13556 33326 ft 402 kts 289°
2026-04-28 18:05 39.42565 35.10246 32924 ft 398 kts 289°
2026-04-28 18:06 39.43548 35.06919 32526 ft 394 kts 289°
2026-04-28 18:06 39.44520 35.03618 32130 ft 390 kts 289°
2026-04-28 18:06 39.45482 35.00348 31747 ft 387 kts 289°
2026-04-28 18:06 39.46434 34.97104 31370 ft 384 kts 289°
2026-04-28 18:07 39.47375 34.93888 30988 ft 381 kts 289°
2026-04-28 18:07 39.48009 34.91721 30737 ft 379 kts 289°
2026-04-28 18:07 39.48926 34.88580 30370 ft 377 kts 289°
2026-04-28 18:07 39.49848 34.85417 29997 ft 374 kts 289°
2026-04-28 18:08 39.50763 34.82276 29566 ft 372 kts 289°
2026-04-28 18:08 39.51671 34.79158 29189 ft 368 kts 289°
2026-04-28 18:08 39.52567 34.76075 28784 ft 364 kts 289°
2026-04-28 18:08 39.53466 34.72978 28409 ft 360 kts 289°
2026-04-28 18:09 39.54333 34.69989 28020 ft 358 kts 289°
2026-04-28 18:09 39.55201 34.66989 27664 ft 354 kts 289°
2026-04-28 18:09 39.56063 34.64010 27283 ft 352 kts 289°
2026-04-28 18:09 39.56918 34.61053 26917 ft 349 kts 289°
2026-04-28 18:10 39.57765 34.58118 26560 ft 346 kts 288°
2026-04-28 18:10 39.58603 34.55209 26201 ft 344 kts 288°
2026-04-28 18:10 39.59437 34.52316 25842 ft 341 kts 288°
2026-04-28 18:10 39.60264 34.49440 25494 ft 339 kts 288°
2026-04-28 18:11 39.61084 34.46587 25148 ft 337 kts 288°
2026-04-28 18:11 39.61899 34.43745 24793 ft 335 kts 288°
2026-04-28 18:11 39.62709 34.40925 24445 ft 333 kts 288°
2026-04-28 18:11 39.63521 34.38096 23954 ft 337 kts 288°
2026-04-28 18:12 39.64339 34.35252 23572 ft 336 kts 288°
2026-04-28 18:12 39.65144 34.32449 23146 ft 335 kts 289°
2026-04-28 18:12 39.65955 34.29625 22786 ft 333 kts 289°
2026-04-28 18:12 39.66758 34.26825 22429 ft 330 kts 289°
2026-04-28 18:13 39.67553 34.24051 22071 ft 327 kts 289°
2026-04-28 18:13 39.68342 34.21293 21726 ft 324 kts 289°
2026-04-28 18:13 39.69124 34.18557 21392 ft 322 kts 289°
2026-04-28 18:13 39.69900 34.15837 21046 ft 320 kts 289°
2026-04-28 18:14 39.70667 34.13148 20718 ft 318 kts 289°
2026-04-28 18:14 39.71434 34.10456 20387 ft 316 kts 289°
2026-04-28 18:14 39.72193 34.07786 20058 ft 314 kts 289°
2026-04-28 18:14 39.72948 34.05130 19729 ft 313 kts 289°
2026-04-28 18:15 39.73693 34.02506 19416 ft 311 kts 289°
2026-04-28 18:15 39.74442 33.99864 19093 ft 312 kts 289°
2026-04-28 18:15 39.75204 33.97175 18780 ft 326 kts 290°
2026-04-28 18:15 39.76006 33.94343 18409 ft 339 kts 290°
2026-04-28 18:16 39.76824 33.91452 18019 ft 341 kts 290°
2026-04-28 18:16 39.77621 33.88552 17611 ft 341 kts 287°
2026-04-28 18:16 39.78178 33.85560 17177 ft 341 kts 281°
2026-04-28 18:16 39.78625 33.82530 16787 ft 340 kts 280°
2026-04-28 18:17 39.79046 33.79522 16411 ft 336 kts 280°
2026-04-28 18:17 39.79463 33.76546 16055 ft 333 kts 280°
2026-04-28 18:17 39.79880 33.73609 15713 ft 329 kts 281°
2026-04-28 18:17 39.80299 33.70700 15375 ft 325 kts 281°
2026-04-28 18:18 39.80717 33.67823 15037 ft 323 kts 281°
2026-04-28 18:18 39.81133 33.64971 14695 ft 320 kts 281°
2026-04-28 18:18 39.81549 33.62135 14366 ft 318 kts 281°
2026-04-28 18:18 39.81824 33.60264 14140 ft 316 kts 281°
2026-04-28 18:19 39.82373 33.56520 13691 ft 314 kts 281°
2026-04-28 18:19 39.82781 33.53735 13321 ft 313 kts 281°
2026-04-28 18:19 39.83188 33.50955 12971 ft 311 kts 281°
2026-04-28 18:19 39.83592 33.48191 12627 ft 310 kts 281°
2026-04-28 18:20 39.83993 33.45446 12294 ft 309 kts 281°
2026-04-28 18:20 39.84392 33.42706 11970 ft 308 kts 281°
2026-04-28 18:20 39.84785 33.40003 11638 ft 307 kts 281°
2026-04-28 18:20 39.85182 33.37272 11308 ft 307 kts 281°
2026-04-28 18:21 39.85578 33.34537 10992 ft 307 kts 280°
2026-04-28 18:21 39.85973 33.31808 10663 ft 307 kts 280°
2026-04-28 18:21 39.86366 33.29084 10334 ft 305 kts 280°
2026-04-28 18:21 39.86750 33.26420 10206 ft 295 kts 280°
2026-04-28 18:22 39.87123 33.23827 10071 ft 287 kts 280°
2026-04-28 18:22 39.87487 33.21300 9869 ft 285 kts 280°
2026-04-28 18:22 39.87852 33.18754 9550 ft 285 kts 280°
2026-04-28 18:22 39.88215 33.16218 9245 ft 285 kts 280°
2026-04-28 18:23 39.88575 33.13688 8961 ft 283 kts 280°
2026-04-28 18:23 39.88931 33.11201 8830 ft 276 kts 280°
2026-04-28 18:23 39.89278 33.08768 8713 ft 272 kts 280°
2026-04-28 18:23 39.89623 33.06351 8596 ft 271 kts 280°
2026-04-28 18:24 39.89966 33.03939 8482 ft 273 kts 280°
2026-04-28 18:24 39.90195 33.02321 8339 ft 278 kts 280°
2026-04-28 18:24 39.90740 32.98990 7933 ft 283 kts 291°
2026-04-28 18:24 39.91772 32.96832 7634 ft 280 kts 307°
2026-04-28 18:25 39.92943 32.94807 7311 ft 279 kts 306°
2026-04-28 18:25 39.94100 32.92782 7005 ft 278 kts 306°
2026-04-28 18:25 39.95248 32.90753 6688 ft 278 kts 306°
2026-04-28 18:26 39.98106 32.87732 6068 ft 264 kts 352°
2026-04-28 18:26 39.99872 32.88034 5855 ft 253 kts 17°
2026-04-28 18:26 40.01431 32.88953 5498 ft 237 kts 26°
2026-04-28 18:26 40.02784 32.90030 5213 ft 219 kts 33°
2026-04-28 18:27 40.03969 32.91153 4952 ft 203 kts 34°
2026-04-28 18:27 40.05075 32.92225 4699 ft 192 kts 34°
2026-04-28 18:27 40.06119 32.93229 4476 ft 179 kts 34°
2026-04-28 18:27 40.07082 32.94163 4197 ft 167 kts 33°
2026-04-28 18:28 40.08017 32.95064 4066 ft 169 kts 33°
2026-04-28 18:28 40.08984 32.95985 3777 ft 171 kts 33°
2026-04-28 18:28 40.09935 32.96906 3537 ft 169 kts 35°
2026-04-28 18:28 40.10860 32.97795 3297 ft 165 kts 33°
2026-04-28 18:29 40.11777 32.98671 3117 ft 154 kts 33°
2026-04-28 18:29 40.12542 32.99395 3119 ft 117 kts 36°
2026-04-28 18:29 40.13031 32.99883 3122 ft 48 kts 44°
2026-04-28 18:29 40.13069 33.00034 3125 ft 0 kts 56°
2026-04-28 18:31 40.13081 33.00074 3123 ft 9 kts 68°
2026-04-28 18:31 40.13080 33.00155 3125 ft 9 kts 120°
2026-04-28 18:31 40.13026 33.00172 3125 ft 9 kts 213°
2026-04-28 18:32 40.12972 33.00121 3123 ft 13 kts 217°
2026-04-28 18:32 40.12869 33.00020 3123 ft 23 kts 216°
2026-04-28 18:32 40.12740 32.99896 3122 ft 23 kts 217°
2026-04-28 18:32 40.12614 32.99776 3122 ft 22 kts 216°
2026-04-28 18:33 40.12491 32.99660 3120 ft 21 kts 216°
2026-04-28 18:33 40.12373 32.99547 3119 ft 21 kts 216°
2026-04-28 18:33 40.12258 32.99436 3117 ft 20 kts 216°
2026-04-28 18:33 40.12153 32.99335 3116 ft 15 kts 216°
2026-04-28 18:34 40.12069 32.99255 3115 ft 15 kts 216°
2026-04-28 18:34 40.11989 32.99177 3114 ft 14 kts 217°
2026-04-28 18:34 40.11911 32.99103 3113 ft 13 kts 214°
2026-04-28 18:34 40.11839 32.99039 3113 ft 10 kts 208°
2026-04-28 18:35 40.11791 32.99069 3112 ft 8 kts 128°
2026-04-28 18:35 40.11746 32.99111 3112 ft 8 kts 150°
2026-04-28 18:35 40.11696 32.99139 3112 ft 8 kts 160°
2026-04-28 18:35 40.11649 32.99167 3112 ft 7 kts 151°
2026-04-28 18:36 40.11635 32.99177 3112 ft 0 kts 150°